Wind_Speed
17 22 24 27 26 29 37 37 38 39 40 40 40 43 45 45 42 38 34 31 33 28 29 36 33 31 30 27 24 19 20 18 15
21 26 23 26 23 31 37 36 40 43 42 41 42 45 44 45 45 41 36 34 31 25 28 33 37 33 33 30 27 23 23 21 18
25 29 26 26 25 29 37 41 40 43 44 45 46 45 44 43 46 43 38 37 37 34 26 34 36 35 35 33 30 25 24 24 21
29 27 23 21 21 29 39 40 37 40 41 42 40 42 41 39 41 41 40 40 39 37 33 33 37 39 39 36 33 30 28 27 24
27 28 23 17 17 21 28 36 36 41 40 41 42 42 40 39 39 38 40 42 45 39 35 33 38 41 42 40 38 35 32 30 29
12 17 7 8 14 16 20 31 36 39 39 43 42 41 38 37 37 38 40 44 43 46 42 39 38 37 39 41 41 39 36 33 31
13 11 13 9 11 18 20 32 37 39 40 42 42 41 40 38 39 41 41 42 43 43 44 42 42 39 37 37 39 41 39 37 35
16 15 14 10 16 18 20 28 35 37 38 40 43 42 41 43 42 40 38 37 40 41 41 39 40 39 38 37 38 41 41 40 39
10 12 10 15 23 26 24 26 34 39 39 41 41 41 43 40 40 38 38 36 36 37 37 38 38 38 38 38 39 41 41 41 41
12 13 12 16 21 22 22 31 38 37 40 40 41 43 39 39 39 39 39 36 34 34 35 34 36 34 33 36 39 40 40 39 38
10 10 9 9 17 21 32 38 37 42 40 41 41 41 39 39 39 39 36 35 35 32 32 34 34 35 35 35 38 39 38 36 33
12 10 9 9 14 18 29 30 36 35 34 37 37 36 39 39 39 36 35 35 34 32 31 30 34 38 37 38 31 36 36 31 28
10 9 10 10 16 25 22 29 35 31 32 36 38 42 43 43 39 37 36 35 33 33 33 36 35 32 36 30 33 30 28 26 25
4 8 11 14 20 17 30 37 30 33 37 35 45 45 39 36 39 38 37 33 33 33 33 31 30 28 25 23 23 24 18 19 22
6 8 5 11 7 9 27 31 36 32 29 46 44 36 35 35 38 35 33 36 34 34 34 30 26 23 23 19 16 15 16 19 21
6 9 9 9 7 10 16 24 33 27 38 30 30 30 30 31 34 35 37 37 34 31 32 26 22 23 23 21 17 16 15 17 19
10 12 14 19 12 4 2 17 27 34 34 37 36 31 30 32 34 33 34 34 35 31 27 23 26 24 23 22 19 18 18 20 19
9 9 11 21 19 13 11 17 18 21 31 43 35 30 28 26 28 31 31 27 20 27 32 35 29 27 25 23 20 22 19 16 16
6 8 10 12 14 17 21 30 5 30 31 31 37 36 37 21 26 24 27 34 26 21 24 24 23 22 22 22 17 17 16 14 11
5 9 9 9 8 6 20 41 44 27 31 36 29 27 26 33 35 32 33 33 27 19 21 22 22 22 23 21 24 22 19 14 12
Wind_Direction
199 194 197 199 200 199 200 195 190 188 190 192 192 194 197 204 210 214 223 220 221 221 217 210 207 206 208 214 214 215 205 217 218
198 194 197 205 202 205 199 196 190 189 190 194 194 196 200 205 213 216 217 218 223 221 223 218 208 210 211 213 214 216 210 214 216
201 197 195 207 195 196 199 199 193 190 191 193 195 197 200 203 211 215 217 219 224 221 223 215 211 211 212 212 215 215 213 217 216
194 192 196 207 199 200 194 192 189 192 190 194 195 196 200 200 207 209 212 218 223 224 222 221 216 213 213 214 215 214 215 218 216
199 198 200 202 192 192 191 189 189 192 190 193 195 196 198 201 204 206 208 216 223 227 226 223 217 218 218 218 218 217 216 218 218
202 207 198 207 194 186 190 190 191 191 191 194 195 195 196 198 201 203 208 214 218 225 227 225 220 218 218 220 221 220 221 223 222
182 191 221 188 194 200 189 191 193 193 195 194 192 193 195 197 200 205 208 212 215 220 224 225 224 222 223 222 223 223 224 225 225
178 174 181 190 202 200 192 191 195 195 195 193 191 193 195 199 202 205 207 208 213 214 220 220 226 225 225 225 224 225 226 227 228
263 215 191 195 193 194 193 188 191 193 193 193 190 195 202 198 200 201 205 206 207 209 211 218 223 227 228 225 228 232 235 234 233
213 212 227 185 193 192 192 192 190 190 194 189 191 198 200 199 198 200 202 203 201 203 205 210 218 221 224 230 234 238 240 238 234
207 211 217 199 187 191 194 193 190 192 191 189 193 197 198 199 199 200 199 197 198 198 199 203 212 220 223 230 239 241 239 235 229
184 193 206 191 174 199 189 186 192 190 188 193 195 196 198 199 200 196 194 196 194 194 194 198 208 218 216 226 234 239 235 225 219
251 227 183 187 177 185 193 197 185 183 192 193 196 198 200 198 196 194 193 194 190 192 193 201 207 204 217 225 227 225 218 210 217
224 230 228 223 187 175 192 195 192 191 188 194 204 204 199 193 192 193 193 187 186 184 188 196 198 198 210 211 211 198 210 215 211
247 238 240 237 221 224 199 189 183 194 193 203 202 195 193 190 186 187 182 178 177 180 182 183 182 182 173 185 199 204 210 213 220
6 354 331 314 215 225 231 210 193 190 204 196 188 179 182 184 182 179 173 164 165 169 176 167 158 156 166 185 192 200 208 215 221
40 40 20 5 344 129 192 208 212 195 179 171 166 167 166 163 161 160 161 164 166 161 155 152 153 158 167 182 190 195 204 209 217
38 46 33 32 15 359 346 143 158 171 165 153 144 148 150 149 142 139 133 129 133 151 160 163 164 173 175 175 188 200 204 210 206
17 34 39 50 50 354 349 342 281 142 145 147 137 138 129 136 120 115 114 119 128 148 157 151 168 169 169 177 190 193 190 181 179
29 52 42 46 94 52 336 297 286 131 131 135 140 130 135 133 132 126 131 127 142 135 136 156 155 163 170 170 165 166 160 160 156
Height
690 694 696 699 705 710 717 724 732 739 747 754 760 766 770 775 780 785 789 793 798 801 803 805 809 812 815 818 820 823 825 827 829
682 682 688 690 696 704 707 717 721 728 737 746 751 757 763 768 773 778 783 788 793 796 798 801 804 808 811 815 817 819 821 823 825
672 669 674 676 680 689 697 705 713 720 727 734 740 748 753 759 765 772 778 784 786 790 793 796 800 803 806 809 812 815 817 819 822
658 661 665 668 670 680 682 694 707 714 720 728 736 741 747 752 758 765 771 776 780 783 788 791 794 797 801 804 807 810 813 815 819
648 645 654 658 663 671 683 688 697 705 711 719 726 733 741 746 751 758 763 767 772 777 781 784 787 791 794 798 801 805 808 811 814
654 654 659 660 661 669 675 681 688 697 703 708 718 727 734 740 745 749 753 758 763 768 773 778 782 785 788 791 795 800 803 805 808
646 647 650 654 657 663 664 672 679 686 693 701 708 718 725 731 735 738 744 749 755 759 765 770 775 778 782 785 790 793 797 799 802
635 640 643 643 649 655 656 664 670 678 684 692 698 707 713 717 724 730 737 742 746 752 757 763 768 773 777 780 783 786 789 792 795
643 629 627 630 632 637 644 651 660 666 674 681 690 699 702 709 715 722 727 734 739 744 750 756 761 766 771 775 777 780 784 786 787
629 628 624 624 624 628 633 642 647 657 663 671 680 687 695 701 706 712 717 725 732 737 743 750 755 760 767 771 773 776 779 780 783
620 617 619 618 614 618 623 629 639 643 653 662 669 678 686 692 697 702 710 717 723 730 737 743 748 754 760 764 765 769 773 776 779
603 605 605 607 605 613 616 623 629 639 649 656 663 669 675 681 689 695 702 708 714 722 730 736 740 744 750 752 751 761 766 771 774
598 596 595 598 602 604 615 617 621 633 641 647 650 653 659 667 678 687 692 699 707 714 721 726 731 735 741 744 748 754 762 765 770
590 590 591 590 593 599 602 606 616 620 625 634 635 641 650 661 668 676 683 692 701 706 714 720 726 732 740 743 747 753 757 762 766
592 592 588 587 592 593 592 596 603 612 617 616 623 637 645 652 657 667 676 684 693 701 708 714 719 728 731 744 747 751 755 759 763
601 601 598 591 588 589 592 594 594 602 606 615 626 632 641 648 655 660 667 675 686 696 701 709 717 724 730 739 744 749 753 758 762
607 610 611 607 605 594 593 592 599 593 597 606 616 627 635 640 646 654 662 669 676 684 693 702 707 718 727 733 739 744 749 755 757
617 616 615 616 619 616 608 591 592 598 599 597 607 624 632 643 648 651 660 669 678 684 686 692 706 715 721 728 737 742 748 751 752
622 617 614 616 618 622 618 623 615 592 596 605 602 614 617 647 648 655 660 667 681 689 695 695 707 711 716 725 733 739 744 748 750
627 623 620 619 617 620 621 612 632 586 595 604 614 613 625 632 642 649 651 668 690 696 697 702 705 711 715 721 726 735 738 744 748